Flag for Brazil Weather past 2 weeks in Porto Alegre, Rio Grande do Sul, Brazil

Now
68 °F

Clear.


Feels Like: 68 °F
Forecast: 62 / 70 °F
Wind: 5 mph from South

Location: Porto Alegre Aero-Porto

Current Time: Aug 1, 2015 at 4:53:20 AM

Latest Report: Aug 1, 2015 at 4:00 AM


Visibility: 10 mi

Pressure: 30.04 "Hg

Humidity: 64%

Dew point: 55 °F

Location of Porto AlegreLocation

Historic Weather in Porto Alegre — Graph

°F

Porto Alegre temperature yesterday

Maximum temperature yesterday: 84 °F (at 2:00 PM)
Minimum temperature yesterday: 59 °F (at 5:00 AM)
Average temperature yesterday: 71 °F

Past Weeks' High & Low Weather Summary

 TemperatureHumidityPressure
High84 °F (Jul 30, 2:00 PM)100% (Jul 17, 5:00 AM)30.33 "Hg (Jul 17, 5:00 AM)
Low43 °F (Jul 19, 2:00 AM)32% (Jul 19, 10:00 PM)29.89 "Hg (Jul 19, 2:00 PM)
Average62 °F82%30.11 "Hg
* Reported Jul 17 3:00 AM — Aug 1 3:00 AM, Porto Alegre, Weather by CustomWeather, © 2015

Note: Actual official high and low records may vary slightly from our data, if they occured in-between our weather recording intervals... More about our weather records

Advertising

Porto Alegre weather history for previous 24 hours

 ConditionsComfort  
Time TempWeatherWind HumidityBarometerVisibility
3:00 AM
Sat, Aug 1
70 °FClear.6 mph69%30.04 "Hg10 mi
2:00 AM66 °FPassing clouds.3 mph88%30.01 "HgN/A
1:00 AM68 °FClear.5 mph78%30.01 "Hg10 mi
12:00 AM70 °FPassing clouds.3 mph69%29.98 "HgN/A
11:00 PM
Fri, Jul 31
70 °FClear.5 mph64%29.98 "Hg10 mi
10:00 PM68 °FClear.3 mph78%29.95 "Hg10 mi
9:00 PM72 °FClear.1 mph69%29.92 "Hg10 mi
8:00 PM73 °FClear.2 mph65%29.92 "Hg10 mi
7:00 PM81 °FPassing clouds.5 mph42%29.92 "HgN/A
6:00 PM82 °FPassing clouds.3 mph40%29.89 "HgN/A
5:00 PM84 °FPassing clouds.3 mph40%29.89 "HgN/A
4:00 PM82 °FPassing clouds.7 mph40%29.92 "HgN/A
3:00 PM84 °FPassing clouds.8 mph35%29.92 "HgN/A
2:00 PM84 °FSunny.9 mph33%29.92 "Hg10 mi
1:00 PM82 °FSunny.2 mph40%29.95 "Hg10 mi
12:00 PM77 °FSunny.7 mph47%29.98 "Hg10 mi
11:00 AM75 °FSunny.8 mph47%29.98 "Hg10 mi
10:00 AM72 °FSunny.7 mph53%30.01 "Hg10 mi
9:00 AM68 °FSunny.6 mph64%30.01 "Hg10 mi
8:00 AM63 °FSunny.6 mph77%30.01 "Hg10 mi
7:00 AM61 °FSunny.7 mph83%30.01 "Hg10 mi
6:00 AM59 °FClear.6 mph88%30.01 "Hg10 mi
5:00 AM59 °FClear.5 mph88%30.01 "Hg10 mi
4:00 AM61 °FClear.7 mph88%30.04 "Hg10 mi
Weather by CustomWeather, © 2015

See weather overviewHow to use our weather pages